Location: Sihaung
(22.8641°N, 94.0549°E)
Time: 18:04:58
(UTC+00:00)

Milstar 3 Cent rocket - Pass Details

Date: 03 March 2021
Orbit: 706 x 5147 km, 28.3° (Epoch: 12 April)

Event Time Altitude Azimuth Distance (km) Brightness Sun altitude
Exits shadow 23:03:03 20° 292° (WNW) 1,604 3.1 -14.6°
Maximum altitude 23:05:57 45° 357° (N) 950 2.4 -13.9°
Drops below altitude 10° 23:10:48 10° 71° (ENE) 2,393 5.8 -12.8°
Sets 23:13:45 0° 78° (ENE) 3,611 7.2 -12.1°
